Regional Weather Roundup
Issued by NWS Lake Charles, LA

Home | Current Version | Previous Version | Text Only | Print | Product List | Glossary On
Versions: 1 2 3 4 5 6 7 8 9 10 11 12 13 14 15 16 17 18 19 20 21 22 23 24 25 26 27
000
ASUS44 KLCH 202010
RWRLCH
REGIONAL WEATHER ROUNDUP
NATIONAL WEATHER SERVICE LAKE CHARLES LA
300 PM CDT FRI OCT 20 2017

Note: "fair" indicates few or no clouds below 12,000 feet with no
significant weather and/or obstructions to visibility.


ACROSS SOUTHEAST TEXAS

CITY           SKY/WX    TMP DP  RH WIND       PRES   REMARKS
BEAUMONT       LGT RAIN  72  69  90 E9        30.01S
BEAUMONT CITY  MOCLDY    73  69  85 SE6       30.03R
ORANGE         LGT RAIN  71  70  96 E6        30.03S
JASPER         CLOUDY    78  67  67 E5        30.03F
$$

ACROSS CENTRAL LOUISIANA

CITY           SKY/WX    TMP DP  RH WIND       PRES   REMARKS
LEESVILLE      PTSUNNY   74  65  73 CALM      30.04F
FULLERTON      FAIR      75  65  70 CALM      30.02F
ALEXANDRIA INT PTSUNNY   78  62  57 SE7       30.04F
ESLER FIELD    PTSUNNY   78  63  59 VRB6      30.07F
DERIDDER       FAIR      74  64  70 E5        30.06F
OAKDALE        CLOUDY    73  66  78 CALM      30.03F
OPELOUSAS      FAIR      77  66  68 E7        30.05F
$$

ACROSS SOUTHWEST AND SOUTH CENTRAL LOUISIANA

CITY           SKY/WX    TMP DP  RH WIND       PRES   REMARKS
SULPHUR        MOCLDY    73  67  83 E7        30.03F
LAKE CHARLES   PTSUNNY   74  66  76 E6        30.03S
CHENNAULT INT  PTSUNNY   73  66  78 E5        30.03F
CAMERON PHI    PTCLDY    72  70  94 E6        30.01
DEQUINCY       LGT RAIN  69  67  92 CALM      30.03S
JENNINGS       FAIR      76  66  71 E6        30.04S
LAFAYETTE      CLOUDY    79  69  71 VRB6      30.04F
NEW IBERIA     CLOUDY    79  66  64 E10       30.04F
ABBEVILLE      FAIR      79  70  73 E8        30.03F
PATTERSON      CLOUDY    81  69  67 E9        30.04F
SALT POINT       N/A     81  67  62 SE6       30.01F
$$

SELECTED SITES ACROSS THE REGION

CITY           SKY/WX    TMP DP  RH WIND       PRES   REMARKS
HOUSTON BUSH   CLOUDY    76  72  87 E13       29.99F
HOUSTON HOBBY  CLOUDY    78  71  79 E9        29.98S
GALVESTON      PTSUNNY   80  74  81 E10       29.98S THUNDER
COLLEGE STAT   MOSUNNY   87  68  52 SE16      29.95F
CONROE         CLOUDY    76  72  87 SE8       30.01S
HUNTSVILLE     LGT RAIN  77  69  76 SE7       30.00F
LUFKIN         CLOUDY    77  65  66 SE9       30.02F
SHREVEPORT     PTSUNNY   77  61  57 SE9       30.06F
MONROE         CLOUDY    77  61  57 E6        30.08F
NATCHEZ MS     CLOUDY    79  64  60 E9        30.08F
BATON ROUGE    PTSUNNY   80  66  62 SE14      30.05F
N.O. INTL ARPT CLOUDY    80  71  74 E16       30.05F
SLIDELL        CLOUDY    79  68  69 E7        30.07F
$$

MARINE REPORTS

STATION/POSITION TIME  SKY/WX   TEMP    WIND        PRES    VSBY
                                AIR SEA DIR/SP/G
                 (UTC)          (F)     (DEG/KT/KT) (MB)    (MI)
BUOY 30 S HIGH I 1950            75 79  100/ 17/ 21 1014.9F
WVE H/P(F/S)=  6/ 7

SEA RIM ST PARK  2000            74     110/ 12/ 14 1016.1F
PORT ARTHUR      1948            72 76   80/  5/  9 1016.4F
SABINE PASS N    1948            75 76  110/ 14/ 17 1017.3F
TEXAS POINT      NOT AVBL
CALCASIEU PASS   1948            72 74  100/  6/  8 1015.3F
LK CHARLES BEACH 1948            74 79              1016.4F
MARSH ISLAND     1900            75                   N/A
FRESH WATER LOCK 1948            76 74   90/  9/ 11 1016.9F
AMERADA PASS     1948            79 78   90/  6/ 11 1016.8F
$$




USA.gov is the U.S. government's official web portal to all federal, state and local government web resources and services.